TimeCST,TemperatureF,Dew PointF,Humidity,Sea Level PressureIn,VisibilityMPH,Wind Direction,Wind SpeedMPH,Gust SpeedMPH,PrecipitationIn,Events,Conditions,WindDirDegrees,DateUTC
12:53 AM,26.1,10.0,51,30.23,10.0,SE,12.7,-,N/A,,Clear,140,2009-01-01 06:53:00
1:53 AM,25.0,12.0,58,30.20,10.0,ESE,10.4,-,N/A,,Clear,120,2009-01-01 07:53:00
2:53 AM,25.0,12.9,60,30.15,10.0,SE,17.3,-,N/A,,Clear,140,2009-01-01 08:53:00
3:53 AM,23.0,12.9,65,30.17,10.0,SSE,8.1,-,N/A,,Clear,160,2009-01-01 09:53:00
4:53 AM,23.0,12.9,65,30.14,10.0,SE,9.2,-,N/A,,Clear,130,2009-01-01 10:53:00
5:53 AM,24.1,12.9,62,30.13,10.0,SE,10.4,-,N/A,,Clear,140,2009-01-01 11:53:00
6:53 AM,24.1,16.0,71,30.11,10.0,SSE,15.0,-,N/A,,Clear,160,2009-01-01 12:53:00
7:53 AM,26.1,17.1,69,30.09,10.0,SSE,12.7,-,N/A,,Partly Cloudy,150,2009-01-01 13:53:00
8:53 AM,28.9,18.0,64,30.06,10.0,SSE,18.4,-,N/A,,Partly Cloudy,150,2009-01-01 14:53:00
9:53 AM,34.0,19.0,54,30.07,10.0,SE,10.4,-,N/A,,Clear,130,2009-01-01 15:53:00
10:53 AM,39.9,17.1,40,30.04,10.0,SSE,15.0,-,N/A,,Clear,160,2009-01-01 16:53:00
11:53 AM,42.1,17.1,37,29.99,10.0,SSE,15.0,-,N/A,,Clear,160,2009-01-01 17:53:00
12:53 PM,45.0,19.0,36,29.94,10.0,SSE,12.7,-,N/A,,Clear,160,2009-01-01 18:53:00
1:53 PM,48.0,19.9,33,29.89,10.0,SSE,15.0,-,N/A,,Clear,160,2009-01-01 19:53:00
2:53 PM,48.9,21.9,35,29.88,10.0,SSE,13.8,-,N/A,,Clear,160,2009-01-01 20:53:00
3:53 PM,48.0,23.0,37,29.88,10.0,SSE,12.7,-,N/A,,Clear,160,2009-01-01 21:53:00
4:53 PM,44.1,24.1,45,29.88,10.0,South,11.5,-,N/A,,Partly Cloudy,170,2009-01-01 22:53:00
5:53 PM,39.9,23.0,51,29.93,10.0,South,6.9,-,N/A,,Clear,170,2009-01-01 23:53:00
6:53 PM,41.0,24.1,51,29.94,8.0,SSW,4.6,-,N/A,,Clear,200,2009-01-02 00:53:00
7:53 PM,39.9,23.0,51,29.95,10.0,SSW,4.6,-,N/A,,Clear,210,2009-01-02 01:53:00
8:53 PM,39.0,24.1,55,29.95,10.0,South,3.5,-,N/A,,Clear,190,2009-01-02 02:53:00
9:53 PM,39.0,24.1,55,29.93,10.0,South,5.8,-,N/A,,Clear,190,2009-01-02 03:53:00
10:53 PM,36.0,24.1,62,29.94,10.0,Calm,Calm,-,N/A,,Clear,0,2009-01-02 04:53:00
11:53 PM,35.1,24.1,64,29.93,10.0,Calm,Calm,-,N/A,,Clear,0,2009-01-02 05:53:00